FENGYUN 1C DEB, 30557

Orbit data source: Space-Track

FENGYUN 1C DEB, 30557 is space debris in SSO originally from a launch on Mon, 10 May 1999 UTC launched from the Taiyaun Space Center, China (TSC). Fengyun 1C debris stems from the Chinese weather satellite Fengyun-1C, which was intentionally destroyed by a Chinese anti-satellite missile in 2007. This event dramatically increased the amount of space debris, with thousands of trackable fragments posing hazards to satellites and human spaceflight. The Fengyun 1C debris cloud has become a focal point in discussions about space sustainability and the need for international regulations to prevent the creation of new debris.

Loading next visibility...
Identifier
30557, 1999-025AKX
Orbit
SSO
Country
Flag of CNCN / PRC
Related business
Manufacturer
Unknown
Mission
Spacecraft
Bus & Motor
Unknown
Mass
Unknown
Launch date (UTC)
1999-05-10 (27 years ago)
Launch vehicle
Unknown
Launch site
Taiyaun Space Center, China (TSC)
Object type
Payload
Rocket body
Debris
Shape & HBR
Unknown shape, 0.1 m
Radar Cross Section
Small (<0.1 m²)

Expand to show TLE details & history
Last TLE update: 14 hours ago

TLE from 14 hours ago
0 FENGYUN 1C DEB
1 30557U 99025AKX 26123.72688343  .00002176  00000-0  11981-2 0  9998
2 30557  98.9054 192.8375 0068693 190.0871 169.8925 14.11468054983037
Epoch: 2026-05-03T17:26Z
TLE epoch observation values (Epoch: 2026-05-03T17:26:42.728Z)
Latitude
-0.00008°
Longitude
69.53319°
Altitude
906.18 km
Speed
7.374 km/s
True Right ascension
12h 51m 21s
True Declination
0° 00' 00"
Sunlit
Object was in full shadow at epoch
Visualization orbit readout
Latitude
Unknown
Longitude
Unknown
Altitude
Unknown
Speed
Unknown
Apparent Right ascension
Unknown
Apparent Declination
Unknown
Sunlit
N/A
Visualization observer readout
Local Sidereal Time
15:03:43
Azimuth
Unknown
Elevation
Unknown
Doppler factor
Unknown
Orbital elements
Apogee altitude
901.194 km
Perigee altitude
801.869 km
Semi-major axis
7,229.669 km
Eccentricity
0.00687
Inclination
98.9054°
RAAN
192.8375°
Arg. of periapsis
190.0871°
True anomaly
170.02949°
Mean anomaly
169.8925°
Eccentric anomaly
169.96111°
Mean motion
3.53074 °/min
Orbital period
101.96 mins
BSTAR
0.0011981
Loading maneuver chart data...
Computing Atmospheric mass density...
Loading historical data...
Loading historical data...
Loading historical data...
Loading historical data...
Loading historical data...
Loading historical data...
Loading historical data...

Documentation

Showing up to 5 results
|